Location: Honolulu
(21.3069°N, 157.8583°W)
Time: 06:23:31
(UTC-10:00)

A-11 Canister half - Pass Details

Date: 17 May 2026
Orbit: 1524 x 1684 km, 47.3° (Epoch: 5 June)

Event Time Altitude Azimuth Distance (km) Brightness Sun altitude
Rises 01:31:24 0° 305° (NW) 4,900 11.8 -46.4°
Reaches altitude 10° 01:34:44 10° 299° (WNW) 3,925 11.1 -46.1°
Enters shadow 01:35:05 11° 298° (WNW) 3,829 11.1 -46.1°
